Location: Eaton Estates
(41.3089°N, 82.0057°W)
Time: 09:19:00
(UTC+00:00)

NOAA 18 - Pass Details

Date: 08 April 2023
Orbit: 838 x 860 km, 98.9° (Epoch: 03 June)

Event Time Altitude Azimuth Distance (km) Brightness Sun altitude
Exits shadow 02:40:16 35° 44° (NE) 1,356 6.2 -28.0°
Drops below altitude 10° 02:44:21 10° 2° (N) 2,505 8.1 -28.5°
Sets 02:46:52 0° 354° (N) 3,444 9.0 -28.9°
